Location: Balmoral
(33.0667°S, 151.5833°E)
Time: 04:07:45
(UTC+00:00)

Landsat 5 - Pass Details

Date: 18 September 2020
Orbit: 528 x 655 km, 98.2° (Epoch: 23 October)

Event Time Altitude Azimuth Distance (km) Brightness Sun altitude
Rises 18:33:23 0° 169° (S) 2,847 7.2 -16.3°
Reaches altitude 10° 18:35:32 10° 170° (S) 1,958 6.4 -15.8°
Maximum altitude 18:39:48 81° 257° (WSW) 631 3.5 -15.0°
Drops below altitude 10° 18:44:10 10° 343° (NNW) 2,005 5.9 -14.0°
Sets 18:46:23 0° 344° (NNW) 2,921 6.8 -13.6°
